| time (UTC) | temp C | wind direction | speed KPH | gust KPH | rain 1hr cm | rain 24hr cm | rain mn cm | humidity % | barometer mb |
| 20260503203100 | 16 | 226 | 1.6 | 12.9 | 0.00 | 0.00 | 0.00 | 54 | 1012.1 |
| 20260503202546 | 16 | 230 | 1.6 | 6.4 | 0.00 | 0.00 | 0.00 | 55 | 1012.0 |
| 20260503202044 | 16 | 274 | 0.0 | 6.4 | 0.00 | 0.00 | 0.00 | 55 | 1011.9 |
| 20260503201559 | 16 | 0 | 1.6 | 6.4 | 0.00 | 0.00 | 0.00 | 55 | 1011.8 |
| 20260503201047 | 16 | 0 | 1.6 | 6.4 | 0.00 | 0.00 | 0.00 | 55 | 1011.7 |
| 20260503200548 | 16 | 279 | 1.6 | 6.4 | 0.00 | 0.00 | 0.00 | 54 | 1011.6 |
| 20260503200057 | 16 | 315 | 1.6 | 8.0 | 0.00 | 0.00 | 0.00 | 55 | 1011.6 |
| 20260503195551 | 16 | 256 | 3.2 | 9.7 | 0.00 | 0.00 | 0.00 | 55 | 1011.5 |
| 20260503195049 | 16 | 296 | 3.2 | 9.7 | 0.00 | 0.00 | 0.00 | 54 | 1011.5 |
| 20260503194558 | 16 | 292 | 1.6 | 8.0 | 0.00 | 0.00 | 0.00 | 55 | 1011.5 |
| 20260503194045 | 16 | 0 | 1.6 | 9.7 | 0.00 | 0.00 | 0.00 | 55 | 1011.4 |
| 20260503193547 | 16 | 0 | 3.2 | 12.9 | 0.00 | 0.00 | 0.00 | 55 | 1011.4 |
| 20260503193053 | 16 | 0 | 1.6 | 12.9 | 0.00 | 0.00 | 0.00 | 56 | 1011.4 |
| 20260503192544 | 16 | 278 | 3.2 | 12.9 | 0.00 | 0.00 | 0.00 | 55 | 1011.4 |
| 20260503192044 | 16 | 0 | 1.6 | 14.5 | 0.00 | 0.00 | 0.00 | 56 | 1011.4 |
| 20260503191554 | 16 | 332 | 1.6 | 14.5 | 0.00 | 0.00 | 0.00 | 57 | 1011.4 |
| 20260503191047 | 16 | 328 | 3.2 | 12.9 | 0.00 | 0.00 | 0.00 | 57 | 1011.2 |
| 20260503190545 | 16 | 319 | 3.2 | 12.9 | 0.00 | 0.00 | 0.00 | 58 | 1011.2 |
| 20260503190051 | 16 | 0 | 3.2 | 12.9 | 0.00 | 0.00 | 0.00 | 58 | 1011.1 |
| 20260503185545 | 16 | 288 | 3.2 | 12.9 | 0.00 | 0.00 | 0.00 | 58 | 1011.0 |
| 20260503185049 | 16 | 258 | 4.8 | 12.9 | 0.00 | 0.00 | 0.00 | 58 | 1011.0 |
| 20260503184552 | 17 | 326 | 3.2 | 14.5 | 0.00 | 0.00 | 0.00 | 57 | 1011.0 |
| 20260503184048 | 17 | 7 | 1.6 | 14.5 | 0.00 | 0.00 | 0.00 | 57 | 1011.1 |
| 20260503183547 | 17 | 308 | 3.2 | 12.9 | 0.00 | 0.00 | 0.00 | 57 | 1011.0 |
| 20260503183051 | 17 | 230 | 3.2 | 12.9 | 0.00 | 0.00 | 0.00 | 56 | 1011.0 |
| 20260503182544 | 17 | 281 | 3.2 | 12.9 | 0.00 | 0.00 | 0.00 | 56 | 1011.1 |
| 20260503182047 | 17 | 322 | 3.2 | 22.5 | 0.00 | 0.00 | 0.00 | 55 | 1011.0 |
| 20260503181557 | 17 | 276 | 3.2 | 22.5 | 0.00 | 0.00 | 0.00 | 55 | 1010.9 |
| 20260503181047 | 17 | 277 | 6.4 | 16.1 | 0.00 | 0.00 | 0.00 | 55 | 1010.8 |
| 20260503180545 | 17 | 317 | 1.6 | 17.7 | 0.00 | 0.00 | 0.00 | 55 | 1010.9 |
| 20260503180059 | 17 | 297 | 3.2 | 17.7 | 0.00 | 0.00 | 0.00 | 54 | 1010.9 |
| 20260503175545 | 17 | 313 | 3.2 | 17.7 | 0.00 | 0.00 | 0.00 | 53 | 1010.9 |
| 20260503175045 | 18 | 333 | 1.6 | 17.7 | 0.00 | 0.00 | 0.00 | 53 | 1010.9 |
| 20260503174557 | 18 | 324 | 4.8 | 22.5 | 0.00 | 0.00 | 0.00 | 52 | 1011.0 |
| 20260503174046 | 18 | 178 | 4.8 | 25.7 | 0.00 | 0.00 | 0.00 | 50 | 1011.0 |
| 20260503173546 | 18 | 270 | 8.0 | 25.7 | 0.00 | 0.00 | 0.00 | 49 | 1011.0 |
| 20260503173054 | 18 | 227 | 6.4 | 25.7 | 0.00 | 0.00 | 0.00 | 51 | 1011.0 |
| 20260503172545 | 18 | 222 | 6.4 | 17.7 | 0.00 | 0.00 | 0.00 | 52 | 1011.0 |
| 20260503172045 | 18 | 309 | 4.8 | 22.5 | 0.00 | 0.00 | 0.00 | 51 | 1011.1 |
| 20260503171550 | 18 | 225 | 6.4 | 22.5 | 0.00 | 0.00 | 0.00 | 50 | 1011.0 |
| 20260503171047 | 18 | 284 | 8.0 | 22.5 | 0.00 | 0.00 | 0.00 | 49 | 1011.1 |
| 20260503170547 | 18 | 281 | 4.8 | 19.3 | 0.00 | 0.00 | 0.00 | 49 | 1011.1 |
| 20260503150545 | 20 | 271 | 11.3 | 30.6 | 0.00 | 0.00 | 0.00 | 45 | 1011.0 |
| 20260503131044 | 20 | 14 | 4.8 | 19.3 | 0.00 | 0.00 | 0.00 | 48 | 1011.9 |
| 20260503130549 | 20 | 232 | 6.4 | 24.1 | 0.00 | 0.00 | 0.00 | 48 | 1011.9 |
| 20260503110542 | 18 | 257 | 4.8 | 16.1 | 0.00 | 0.38 | 0.00 | 61 | 1013.0 |
| 20260503110107 | 18 | 238 | 3.2 | 16.1 | 0.00 | 0.38 | 0.00 | 59 | 1013.1 |
| 20260503081553 | 14 | 243 | 0.0 | 8.0 | 0.00 | 0.84 | 0.00 | 79 | 1013.4 |
| 20260503081041 | 13 | 238 | 3.2 | 8.0 | 0.00 | 0.84 | 0.00 | 79 | 1013.5 |
| 20260503080544 | 13 | 236 | 1.6 | 6.4 | 0.00 | 0.84 | 0.00 | 79 | 1013.5 |
| 20260503072542 | 13 | 211 | 4.8 | 9.7 | 0.00 | 0.99 | 0.00 | 79 | 1013.5 |
| 20260503072043 | 13 | 197 | 0.0 | 6.4 | 0.00 | 0.99 | 0.00 | 81 | 1013.6 |
| 20260503071612 | 13 | 186 | 1.6 | 8.0 | 0.00 | 0.99 | 0.00 | 81 | 1013.5 |
| 20260503071042 | 13 | 196 | 1.6 | 8.0 | 0.00 | 0.99 | 0.00 | 82 | 1013.5 |
| 20260503070546 | 13 | 196 | 1.6 | 8.0 | 0.00 | 0.99 | 0.00 | 82 | 1013.5 |
| 20260503060110 | 12 | 0 | 0.0 | 3.2 | 0.00 | 1.24 | 0.00 | 87 | 1013.3 |
| 20260503055043 | 12 | 0 | 1.6 | 4.8 | 0.00 | 1.24 | 0.00 | 86 | 1013.4 |
| 20260503054558 | 12 | 0 | 1.6 | 12.9 | 0.00 | 1.24 | 0.00 | 85 | 1013.4 |
| 20260503054044 | 12 | 351 | 3.2 | 17.7 | 0.00 | 1.24 | 0.00 | 85 | 1013.4 |
| 20260503053542 | 13 | 305 | 6.4 | 17.7 | 0.00 | 1.24 | 0.00 | 83 | 1013.4 |
| 20260503053051 | 13 | 0 | 0.0 | 4.8 | 0.00 | 1.24 | 0.00 | 84 | 1013.3 |
| 20260503052541 | 13 | 0 | 1.6 | 8.0 | 0.00 | 1.24 | 0.00 | 84 | 1013.1 |
| 20260503052042 | 13 | 118 | 1.6 | 12.9 | 0.00 | 1.24 | 0.00 | 84 | 1013.1 |
| 20260503051552 | 13 | 155 | 1.6 | 12.9 | 0.00 | 1.24 | 0.00 | 85 | 1013.1 |
| 20260503051044 | 13 | 181 | 3.2 | 12.9 | 0.00 | 1.24 | 0.00 | 85 | 1013.1 |
| 20260503050542 | 13 | 190 | 3.2 | 9.7 | 0.00 | 1.24 | 0.00 | 85 | 1013.1 |
| 20260503050054 | 13 | 141 | 3.2 | 8.0 | 0.00 | 1.24 | 0.00 | 85 | 1013.0 |
| 20260503045545 | 13 | 130 | 1.6 | 6.4 | 0.00 | 1.24 | 0.00 | 85 | 1013.0 |
| 20260503045045 | 13 | 134 | 3.2 | 6.4 | 0.00 | 1.24 | 0.00 | 85 | 1013.0 |
| 20260503044552 | 13 | 169 | 0.0 | 4.8 | 0.00 | 1.24 | 0.00 | 85 | 1013.1 |
| 20260503044042 | 13 | 0 | 1.6 | 4.8 | 0.00 | 1.24 | 0.00 | 85 | 1013.2 |
| 20260503043541 | 13 | 169 | 0.0 | 3.2 | 0.00 | 1.24 | 0.00 | 85 | 1013.3 |
| 20260503043050 | 13 | 169 | 0.0 | 3.2 | 0.00 | 1.24 | 0.00 | 84 | 1013.3 |
| 20260503042541 | 13 | 169 | 1.6 | 4.8 | 0.00 | 1.24 | 0.00 | 84 | 1013.4 |
| 20260503042044 | 13 | 0 | 1.6 | 9.7 | 0.00 | 1.24 | 0.00 | 84 | 1013.3 |
| 20260503041553 | 13 | 169 | 1.6 | 9.7 | 0.00 | 1.24 | 0.00 | 84 | 1013.2 |
| 20260503041044 | 13 | 120 | 1.6 | 8.0 | 0.00 | 1.24 | 0.00 | 84 | 1013.2 |
| 20260503040544 | 13 | 122 | 3.2 | 8.0 | 0.00 | 1.24 | 0.00 | 84 | 1013.2 |
| 20260503040113 | 13 | 154 | 3.2 | 8.0 | 0.00 | 1.24 | 0.00 | 84 | 1013.2 |
| 20260503035541 | 13 | 128 | 3.2 | 8.0 | 0.00 | 1.24 | 0.00 | 84 | 1013.3 |
| 20260503035042 | 13 | 147 | 1.6 | 6.4 | 0.00 | 1.24 | 0.00 | 85 | 1013.4 |
| 20260503034556 | 13 | 0 | 1.6 | 11.3 | 0.00 | 1.24 | 0.00 | 85 | 1013.4 |
| 20260503034044 | 13 | 125 | 1.6 | 11.3 | 0.00 | 1.24 | 0.00 | 84 | 1013.4 |
| 20260503033542 | 13 | 153 | 1.6 | 9.7 | 0.00 | 1.24 | 0.00 | 84 | 1013.5 |
| 20260503033052 | 13 | 130 | 3.2 | 9.7 | 0.00 | 1.24 | 0.00 | 84 | 1013.5 |
| 20260503032542 | 13 | 128 | 1.6 | 6.4 | 0.00 | 1.24 | 0.00 | 84 | 1013.6 |
| 20260503032042 | 13 | 137 | 0.0 | 6.4 | 0.00 | 1.24 | 0.00 | 84 | 1013.7 |
| 20260503031602 | 13 | 78 | 1.6 | 6.4 | 0.00 | 1.24 | 0.00 | 84 | 1013.7 |
| 20260503031044 | 13 | 80 | 1.6 | 6.4 | 0.00 | 1.24 | 0.00 | 84 | 1013.8 |
| 20260503030545 | 13 | 136 | 1.6 | 6.4 | 0.00 | 1.24 | 0.00 | 84 | 1013.8 |
| 20260503030050 | 13 | 0 | 1.6 | 4.8 | 0.00 | 1.24 | 0.00 | 84 | 1013.9 |
| 20260503025542 | 13 | 114 | 0.0 | 3.2 | 0.00 | 1.24 | 0.00 | 84 | 1013.9 |
| 20260503025041 | 13 | 0 | 0.0 | 4.8 | 0.00 | 1.24 | 0.00 | 83 | 1013.9 |
| 20260503024551 | 13 | 0 | 0.0 | 4.8 | 0.00 | 1.24 | 0.00 | 83 | 1013.9 |
| 20260503024044 | 13 | 87 | 1.6 | 4.8 | 0.00 | 1.24 | 0.00 | 83 | 1013.9 |
| 20260503023542 | 13 | 0 | 0.0 | 4.8 | 0.00 | 1.24 | 0.00 | 82 | 1013.9 |
| 20260503023051 | 14 | 153 | 0.0 | 4.8 | 0.00 | 1.24 | 0.00 | 82 | 1013.9 |
| 20260503022544 | 14 | 0 | 0.0 | 6.4 | 0.00 | 1.24 | 0.00 | 81 | 1013.9 |
| 20260503022046 | 14 | 153 | 1.6 | 6.4 | 0.00 | 1.24 | 0.00 | 80 | 1013.9 |
| 20260503021602 | 15 | 100 | 0.0 | 4.8 | 0.00 | 1.24 | 0.00 | 80 | 1013.9 |
| 20260503021047 | 15 | 0 | 0.0 | 3.2 | 0.00 | 1.24 | 0.00 | 79 | 1013.9 |
| 20260503020546 | 15 | 0 | 0.0 | 3.2 | 0.00 | 1.24 | 0.00 | 78 | 1013.9 |
| 20260503020052 | 15 | 0 | 0.0 | 3.2 | 0.00 | 1.24 | 0.00 | 77 | 1014.0 |
| 20260503015546 | 15 | 0 | 0.0 | 0.0 | 0.00 | 1.24 | 0.00 | 77 | 1014.0 |
| 20260503015045 | 15 | 0 | 0.0 | 0.0 | 0.00 | 1.24 | 0.00 | 78 | 1013.9 |
| 20260503014609 | 15 | 0 | 0.0 | 0.0 | 0.00 | 1.24 | 0.00 | 80 | 1014.0 |
| 20260503014047 | 14 | 0 | 0.0 | 0.0 | 0.00 | 1.24 | 0.00 | 80 | 1014.0 |
| 20260503013548 | 14 | 0 | 0.0 | 0.0 | 0.00 | 1.24 | 0.00 | 80 | 1014.0 |
| 20260503013054 | 14 | 0 | 0.0 | 1.6 | 0.00 | 1.24 | 0.00 | 81 | 1014.0 |
| 20260503012547 | 14 | 0 | 0.0 | 1.6 | 0.00 | 1.24 | 0.00 | 80 | 1014.1 |
| 20260503012047 | 14 | 0 | 0.0 | 3.2 | 0.00 | 1.24 | 0.00 | 80 | 1014.1 |
| 20260503011600 | 14 | 0 | 0.0 | 3.2 | 0.00 | 1.24 | 0.00 | 80 | 1014.2 |
| 20260503011047 | 15 | 0 | 0.0 | 1.6 | 0.00 | 1.24 | 0.00 | 80 | 1014.2 |
| 20260503010547 | 15 | 0 | 0.0 | 1.6 | 0.00 | 1.24 | 0.00 | 80 | 1014.3 |
| 20260503010050 | 15 | 310 | 0.0 | 1.6 | 0.00 | 1.24 | 0.00 | 80 | 1014.3 |
| 20260503005551 | 15 | 0 | 0.0 | 0.0 | 0.00 | 1.24 | 0.00 | 80 | 1014.4 |
| 20260503005047 | 15 | 0 | 0.0 | 0.0 | 0.00 | 1.24 | 0.00 | 80 | 1014.4 |
| 20260503004616 | 15 | 0 | 0.0 | 0.0 | 0.00 | 1.24 | 0.00 | 80 | 1014.4 |
| 20260503004050 | 15 | 0 | 0.0 | 0.0 | 0.00 | 1.24 | 0.00 | 80 | 1014.5 |
| 20260503003546 | 15 | 0 | 0.0 | 3.2 | 0.00 | 1.24 | 0.00 | 80 | 1014.5 |
| 20260503003049 | 15 | 0 | 0.0 | 3.2 | 0.00 | 1.24 | 0.00 | 80 | 1014.5 |
| 20260503002550 | 15 | 310 | 0.0 | 3.2 | 0.00 | 1.24 | 0.00 | 79 | 1014.5 |
| 20260503002046 | 15 | 0 | 0.0 | 1.6 | 0.00 | 1.24 | 0.00 | 79 | 1014.6 |
| 20260503001601 | 15 | 0 | 0.0 | 1.6 | 0.00 | 1.24 | 0.00 | 79 | 1014.6 |
| 20260503001043 | 15 | 0 | 0.0 | 1.6 | 0.00 | 1.24 | 0.00 | 78 | 1014.9 |
| 20260503000543 | 15 | 0 | 0.0 | 1.6 | 0.00 | 1.24 | 0.00 | 78 | 1014.9 |
| 20260503000050 | 15 | 0 | 0.0 | 0.0 | 0.00 | 1.24 | 0.00 | 77 | 1014.9 |
| 20260502235542 | 15 | 0 | 0.0 | 0.0 | 0.00 | 1.24 | 0.00 | 78 | 1015.0 |
| 20260502235048 | 15 | 0 | 0.0 | 0.0 | 0.00 | 1.24 | 0.00 | 79 | 1014.9 |
| 20260502234554 | 15 | 0 | 0.0 | 0.0 | 0.00 | 1.24 | 0.00 | 79 | 1014.9 |
| 20260502234047 | 15 | 0 | 0.0 | 0.0 | 0.00 | 1.24 | 0.00 | 80 | 1015.0 |
| 20260502233547 | 14 | 0 | 0.0 | 1.6 | 0.00 | 1.24 | 0.00 | 80 | 1015.0 |
| 20260502233055 | 14 | 0 | 0.0 | 3.2 | 0.00 | 1.24 | 0.00 | 80 | 1015.0 |
| 20260502232550 | 14 | 0 | 0.0 | 3.2 | 0.00 | 1.24 | 0.00 | 80 | 1015.0 |
| 20260502232047 | 15 | 0 | 0.0 | 4.8 | 0.00 | 1.24 | 0.00 | 80 | 1015.0 |
| 20260502231552 | 15 | 0 | 1.6 | 4.8 | 0.00 | 1.24 | 0.00 | 80 | 1015.0 |
| 20260502231047 | 15 | 0 | 1.6 | 4.8 | 0.00 | 1.24 | 0.00 | 79 | 1015.0 |
| 20260502230544 | 15 | 310 | 1.6 | 8.0 | 0.00 | 1.24 | 0.00 | 77 | 1015.0 |
| 20260502230054 | 15 | 310 | 3.2 | 8.0 | 0.00 | 1.24 | 0.00 | 75 | 1015.0 |
| 20260502225545 | 15 | 309 | 1.6 | 8.0 | 0.00 | 1.24 | 0.00 | 72 | 1015.0 |
| 20260502225045 | 16 | 0 | 0.0 | 8.0 | 0.00 | 1.24 | 0.00 | 71 | 1015.1 |
| 20260502224548 | 16 | 175 | 3.2 | 8.0 | 0.00 | 1.24 | 0.00 | 71 | 1015.1 |
| 20260502224045 | 15 | 202 | 1.6 | 8.0 | 0.00 | 1.24 | 0.00 | 72 | 1015.1 |
| 20260502223544 | 15 | 193 | 3.2 | 9.7 | 0.00 | 1.24 | 0.00 | 72 | 1015.1 |
| 20260502223057 | 15 | 190 | 1.6 | 11.3 | 0.00 | 1.24 | 0.00 | 72 | 1015.0 |
| 20260502222547 | 15 | 175 | 4.8 | 11.3 | 0.00 | 1.24 | 0.00 | 72 | 1015.1 |
| 20260502222048 | 15 | 163 | 4.8 | 11.3 | 0.00 | 1.24 | 0.00 | 72 | 1015.1 |
| 20260502221550 | 16 | 170 | 6.4 | 11.3 | 0.00 | 1.24 | 0.00 | 72 | 1015.1 |
| 20260502221048 | 16 | 130 | 6.4 | 12.9 | 0.00 | 1.24 | 0.00 | 72 | 1015.2 |
| 20260502220547 | 16 | 193 | 6.4 | 12.9 | 0.00 | 1.24 | 0.00 | 72 | 1015.2 |
| 20260502220053 | 16 | 180 | 4.8 | 9.7 | 0.00 | 1.24 | 0.00 | 72 | 1015.2 |
| 20260502215547 | 16 | 185 | 3.2 | 9.7 | 0.00 | 1.24 | 1.24 | 72 | 1015.3 |
| 20260502215046 | 16 | 203 | 3.2 | 9.7 | 0.00 | 1.24 | 1.24 | 72 | 1015.3 |
| 20260502214552 | 16 | 194 | 3.2 | 9.7 | 0.00 | 1.24 | 1.24 | 72 | 1015.4 |
| 20260502214046 | 16 | 177 | 3.2 | 9.7 | 0.00 | 1.24 | 1.24 | 72 | 1015.4 |
| 20260502213546 | 16 | 174 | 3.2 | 6.4 | 0.00 | 1.24 | 1.24 | 72 | 1015.3 |
| 20260502213051 | 16 | 220 | 3.2 | 6.4 | 0.00 | 1.24 | 1.24 | 72 | 1015.3 |
| 20260502212545 | 16 | 174 | 3.2 | 11.3 | 0.00 | 1.24 | 1.24 | 73 | 1015.3 |
| 20260502212047 | 16 | 155 | 1.6 | 11.3 | 0.00 | 1.24 | 1.24 | 73 | 1015.2 |
| 20260502211551 | 16 | 168 | 4.8 | 11.3 | 0.00 | 1.24 | 1.24 | 73 | 1015.2 |
| 20260502211050 | 16 | 170 | 4.8 | 9.7 | 0.00 | 1.24 | 1.24 | 73 | 1015.2 |
| 20260502210548 | 16 | 174 | 3.2 | 6.4 | 0.00 | 1.24 | 1.24 | 74 | 1015.1 |
| 20260502210107 | 15 | 234 | 1.6 | 4.8 | 0.00 | 1.24 | 1.24 | 75 | 1015.2 |
| 20260502205546 | 15 | 0 | 0.0 | 1.6 | 0.00 | 1.24 | 1.24 | 76 | 1015.1 |
| 20260502205047 | 15 | 0 | 0.0 | 3.2 | 0.00 | 1.24 | 1.24 | 75 | 1015.2 |
| 20260502204557 | 15 | 0 | 0.0 | 4.8 | 0.00 | 1.24 | 1.24 | 75 | 1015.3 |
| 20260502204044 | 15 | 0 | 0.0 | 6.4 | 0.00 | 1.24 | 1.24 | 74 | 1015.2 |
| 20260502203547 | 16 | 234 | 1.6 | 6.4 | 0.00 | 1.24 | 1.24 | 74 | 1015.0 |